Home   Weather   Gainesville   Past weeks

Flag for USA Past Weather in Gainesville, Florida, USA — Yesterday and Last 2 Weeks

Now
77 °F

Clear.


Feels Like: 78 °F
Forecast: 72 / 90 °F
Wind: No wind

Location: Gainesville Regional Airport

Current Time: Jun 19, 2018 at 1:09:24 am

Latest Report: Jun 18, 2018 at 11:53 pm


Visibility: 10 mi

Pressure: 30.09 "Hg

Humidity: 88%

Dew Point: 73 °F

Location of GainesvilleLocation

Past Weather in Gainesville — Graph

°F

Gainesville Temperature Yesterday

Maximum temperature yesterday: 93 °F (at 3:53 pm)
Minimum temperature yesterday: 73 °F (at 4:53 am)
Average temperature yesterday: 81 °F

High & Low Weather Summary for the Past Weeks

 TemperatureHumidityPressure
High94 °F (Jun 4, 1:53 pm)94% (Jun 5, 3:30 am)30.17 "Hg (Jun 5, 3:30 am)
Low68 °F (Jun 8, 6:22 am)42% (Jun 5, 11:53 am)29.86 "Hg (Jun 6, 3:53 am)
Average79 °F76%30.04 "Hg
* Reported Jun 3 11:53 pm — Jun 18 11:53 pm, Gainesville. Weather by CustomWeather, © 2018

Note: Actual official high and low records may vary slightly from our data, if they occured in-between our weather recording intervals... More about our weather records

Advertising

Gainesville Weather History for the Previous 24 Hours

Scroll right to see more
 ConditionsComfort  
Time TempWeatherWind HumidityBarometerVisibility
11:53 pm
Mon, Jun 18
77 °FClear.No wind88%30.09 "Hg10 mi
10:53 pm77 °FClear.3 mph88%30.09 "Hg10 mi
9:53 pm78 °FClear.No wind87%30.08 "Hg10 mi
8:53 pm80 °FPassing clouds.3 mph81%30.09 "Hg10 mi
7:53 pm80 °FSunny.3 mph79%30.06 "Hg10 mi
7:14 pm82 °FBroken clouds.3 mph74%30.09 "Hg10 mi
6:53 pm82 °FThundershowers. Mostly cloudy.No wind72%30.08 "Hg10 mi
6:25 pm81 °FThundershowers. Mostly cloudy.5 mph74%30.08 "Hg10 mi
5:53 pm83 °FThunderstorms. Mostly cloudy.9 mph74%30.07 "Hg10 mi
5:44 pm84 °FThundershowers. Mostly cloudy.5 mph72%30.07 "Hg10 mi
5:18 pm84 °FThunderstorms. Mostly cloudy.7 mph70%30.07 "Hg9 mi
4:53 pm90 °FBroken clouds.7 mph56%30.06 "Hg10 mi
3:53 pm93 °FPassing clouds.6 mph50%30.07 "Hg10 mi
2:53 pm91 °FPartly sunny.No wind52%30.10 "Hg10 mi
1:53 pm92 °FPassing clouds.No wind51%30.12 "Hg10 mi
12:53 pm90 °FPassing clouds.5 mph57%30.14 "Hg10 mi
11:53 am89 °FPassing clouds.5 mph59%30.15 "Hg10 mi
10:53 am87 °FSunny.5 mph63%30.16 "Hg10 mi
9:53 am84 °FSunny.No wind72%30.16 "Hg10 mi
8:53 am81 °FPassing clouds.5 mph82%30.17 "Hg10 mi
7:53 am77 °FFog.No wind88%30.16 "Hg5 mi
6:53 am73 °FSunny.3 mph90%30.15 "Hg7 mi
5:53 am73 °FFog.No wind90%30.13 "Hg5 mi
4:53 am73 °FFog.No wind90%30.11 "Hg4 mi
3:53 am74 °FClear.No wind91%30.11 "Hg9 mi
2:53 am75 °FClear.No wind90%30.12 "Hg8 mi
1:53 am75 °FClear.No wind90%30.14 "Hg10 mi
Weather by CustomWeather, © 2018

See weather overview